Regional Weather Roundup
Issued by NWS

Home | Current Version | Previous Version | Graphics & Text | Print | Product List | Glossary On
Versions: 1 2 3 4 5 6 7 8 9 10 11 12 13 14 15 16 17 18 19 20 21 22 23 24 25 26 27 28 29 30 31 32 33 34 35 36 37 38 39 40 41 42 43 44 45 46 47 48 49 50
000
ASUS43 KMKX 201811
RWRWI

WISCONSIN REGIONAL WEATHER ROUNDUP
NATIONAL WEATHER SERVICE MILWAUKEE/SULLIVAN WI
100 PM CDT MON OCT 20 2014

NOTE: "FAIR" INDICATES FEW OR NO CLOUDS BELOW 12,000 FEET WITH NO
SIGNIFICANT WEATHER AND/OR OBSTRUCTIONS TO VISIBILITY.

WIZ001-002-006>008-014>016-023>028-201900-
NORTHWEST WISCONSIN

CITY           SKY/WX    TMP DP  RH WIND       PRES   REMARKS
SUPERIOR ARPT  CLOUDY    52  43  71 NW6       30.00R
6HR MIN TEMP:  41; 6HR MAX TEMP:  53;

ASHLAND        CLOUDY    54  41  61 NW10      29.97S
6HR MIN TEMP:  44; 6HR MAX TEMP:  55;

HAYWARD        CLOUDY    52  39  61 N7        29.97S
6HR MIN TEMP:  34; 6HR MAX TEMP:  53;

SIREN          CLOUDY    55  40  57 N9        29.99S
6HR MIN TEMP:  36; 6HR MAX TEMP:  55;

CUMBERLAND     CLOUDY    52  37  58 N10G16    29.97F
RICE LAKE      CLOUDY    54  40  59 N8        29.98F
6HR MIN TEMP:  41; 6HR MAX TEMP:  54;

CHETEK         CLOUDY    53  41  62 N7        29.97S
6HR MIN TEMP:  40; 6HR MAX TEMP:  55;

LADYSMITH      CLOUDY    53  41  64 NW13      29.97S
6HR MIN TEMP:  39; 6HR MAX TEMP:  54;

EAU CLAIRE     PTSUNNY   58  40  51 N15       29.95F
6HR MIN TEMP:  42; 6HR MAX TEMP:  58;

MENOMONIE      PTSUNNY   58  42  55 N12G17    29.97S
6HR MIN TEMP:  44; 6HR MAX TEMP:  58;

NEW RICHMOND   MOSUNNY   58  41  52 NW9G16    29.98F
6HR MIN TEMP:  37; 6HR MAX TEMP:  59;

OSCEOLA        MOSUNNY   58  43  58 N10G16    30.01S
6HR MIN TEMP:  34; 6HR MAX TEMP:  58;

$$

WIZ003>005-009-010-017-018-201900-
NORTH CENTRAL WISCONSIN

CITY           SKY/WX    TMP DP  RH WIND       PRES   REMARKS
MANITOWISH WTR CLOUDY    46  42  84 N6        29.92S
6HR MIN TEMP:  44; 6HR MAX TEMP:  47;

ARBOR VITAE    CLOUDY    49  45  87 N8        29.92S
6HR MIN TEMP:  46; 6HR MAX TEMP:  51; 6HR PCP:  0.01;

WOODRUFF       CLOUDY    49  45  87 N8        29.92S
6HR MIN TEMP:  46; 6HR MAX TEMP:  51; 6HR PCP:  0.01;

RHINELANDER    PTSUNNY   48  40  73 NW7G16    29.91S
6HR MIN TEMP:  44; 6HR MAX TEMP:  49; 6HR PCP:  0.01;

EAGLE RIVER    CLOUDY    49  42  79 N14       29.90S
6HR MIN TEMP:  43; 6HR MAX TEMP:  49; 6HR PCP:  0.01;

LAND O LAKES   CLOUDY    47  43  87 N8        29.91S
6HR MIN TEMP:  44; 6HR MAX TEMP:  47; 6HR PCP:  0.03;

PHILLIPS       CLOUDY    48  40  74 NW8       29.93F
6HR MIN TEMP:  42; 6HR MAX TEMP:  49;

TOMAHAWK       CLOUDY    47  42  83 NW9       29.93S
6HR MIN TEMP:  41; 6HR MAX TEMP:  49;

MEDFORD        CLOUDY    49  41  74 N12       29.93S
6HR MIN TEMP:  40; 6HR MAX TEMP:  50;

MERRILL        CLOUDY    50  42  75 N9G17     29.92R
6HR MIN TEMP:  39; 6HR MAX TEMP:  52;

$$

WIZ029-030-035-036-043>047-201900-
CENTRAL WISCONSIN

CITY           SKY/WX    TMP DP  RH WIND       PRES   REMARKS
WAUSAU         CLOUDY    51  41  68 NW9       29.90S
6HR MIN TEMP:  42; 6HR MAX TEMP:  52;

MOSINEE        CLOUDY    52  45  76 NW9       29.92S
MARSHFIELD     CLOUDY    54  41  61 NW15      29.92S
6HR MIN TEMP:  42; 6HR MAX TEMP:  58;

STEVENS POINT  CLOUDY    50  40  68 N8        29.91S
6HR MIN TEMP:  42; 6HR MAX TEMP:  52; 6HR PCP:  0.02;

WAUPACA        CLOUDY    54  45  71 NW8       29.91R
6HR MIN TEMP:  47; 6HR MAX TEMP:  55;

WAUTOMA        CLOUDY    55  41  59 NW13      29.91S
6HR MIN TEMP:  45; 6HR MAX TEMP:  56;

WISC RAPIDS    CLOUDY    55  40  56 N9        29.92F
6HR MIN TEMP:  43; 6HR MAX TEMP:  57;

CAMP DOUGLAS   PTSUNNY   59  43  55 NW13G20   29.92S
$$

WIZ011>013-019>022-031-037>040-048>050-201900-
NORTHEAST WISCONSIN

CITY           SKY/WX    TMP DP  RH WIND       PRES   REMARKS
ANTIGO         CLOUDY    46  44  91 NW8       29.90F
6HR MIN TEMP:  42; 6HR MAX TEMP:  47; 6HR PCP:  0.01;

SHAWANO        CLOUDY    55  42  63 NW8       29.89F
6HR MIN TEMP:  43; 6HR MAX TEMP:  55;

OCONTO         CLOUDY    52  43  72 NW10G16   29.86F
6HR MIN TEMP:  44; 6HR MAX TEMP:  52;

STURGEON BAY   CLOUDY    50  41  71 N20       29.86F
6HR MIN TEMP:  48; 6HR MAX TEMP:  50;

GREEN BAY      CLOUDY    53  44  71 N14       29.88R
6HR MIN TEMP:  45; 6HR MAX TEMP:  53;

MANITOWOC      CLOUDY    53  45  74 NW12      29.86S
6HR MIN TEMP:  48; 6HR MAX TEMP:  54;

APPLETON       CLOUDY    52  43  71 NW10      29.89S
CLINTONVILLE   CLOUDY    52  41  66 N7        29.89S
OSHKOSH        CLOUDY    53  45  74 NW10      29.88S
6HR MIN TEMP:  46; 6HR MAX TEMP:  54;

$$

WIZ032>034-041-042-053>061-201900-
SOUTHWEST WISCONSIN

CITY           SKY/WX    TMP DP  RH WIND       PRES   REMARKS
LA CROSSE      MOSUNNY   62  43  49 NW12      29.93F
6HR MIN TEMP:  42; 6HR MAX TEMP:  64;

SPARTA         PTSUNNY   60  39  45 NW12G22   29.93F
6HR MIN TEMP:  41; 6HR MAX TEMP:  60;

VIROQUA        MOSUNNY   60  43  52 NW15G22   29.93S
6HR MIN TEMP:  45; 6HR MAX TEMP:  60;

BOSCOBEL       PTSUNNY   65  43  44 N12G20    29.92F
6HR MIN TEMP:  41; 6HR MAX TEMP:  65;

PRAIRIE DU CHI MOSUNNY   64  41  43 NW14G21   29.92F
6HR MIN TEMP:  44; 6HR MAX TEMP:  64;

PLATTEVILLE    MOSUNNY   63  44  50 NW15G21   29.92F
6HR MIN TEMP:  47; 6HR MAX TEMP:  63;

$$

WIZ056-057-062-063-064-067-068-201900-
SOUTH CENTRAL WISCONSIN

CITY           SKY/WX    TMP DP  RH WIND       PRES   REMARKS
REEDSBURG      PTSUNNY   58  43  57 N10G20    29.90F
6HR MIN TEMP:  47; 6HR MAX TEMP:  59;

BARABOO/DELLS  CLOUDY    57  40  52 N7G20     29.90F
6HR MIN TEMP:  47; 6HR MAX TEMP:  58;

LONE ROCK      LGT RAIN  66  42  41 N17G23    29.90F
6HR MIN TEMP:  52; 6HR MAX TEMP:  66; 6HR PCP: TRACE;

MINERAL POINT  PTSUNNY   63  39  42 NW15G22   29.91F
MADISON        MOSUNNY   60  42  51 NW14G23   29.89F
6HR MIN TEMP:  48; 6HR MAX TEMP:  61;

MIDDLETON      PTSUNNY   62  41  46 N15G23    29.90S
6HR MIN TEMP:  49; 6HR MAX TEMP:  62;

WATERTOWN      CLOUDY    55  44  67 N12G17    29.87F
6HR MIN TEMP:  38; 6HR MAX TEMP:  58;

MONROE         SUNNY     61  43  51 NW17G23   29.89F
JANESVILLE     MOSUNNY   63  43  48 NW17      29.88R
$$

WIZ051-052-058>065-066-070>072-201900-
SOUTHEAST WISCONSIN

CITY           SKY/WX    TMP DP  RH WIND       PRES   REMARKS
MILWAUKEE      MOSUNNY   60  48  64 N8        29.85S
6HR MIN TEMP:  48; 6HR MAX TEMP:  60;

WAUKESHA       PTSUNNY   55  45  67 W13       29.86S
MILWAUKEE/TIMM NOT AVBL
RACINE         PTSUNNY   59  47  64 NE14      29.86S
6HR MIN TEMP:  46; 6HR MAX TEMP:  61;

BURLINGTON     MOSUNNY   59  44  57 NW17      29.85F
6HR MIN TEMP:  43; 6HR MAX TEMP:  60;

KENOSHA        MOSUNNY   61  47  59 NW8       29.84F
6HR MIN TEMP:  44; 6HR MAX TEMP:  62;

FOND DU LAC    CLOUDY    53  44  71 NW13      29.88F
6HR MIN TEMP:  41; 6HR MAX TEMP:  55;

SHEBOYGAN      CLOUDY    53  45  74 NW10      29.86S
6HR MIN TEMP:  46; 6HR MAX TEMP:  55;

WEST BEND      CLOUDY    54  43  66 NW10G16   29.87R
JUNEAU         CLOUDY    54  44  70 NW12      29.90R
6HR MIN TEMP:  40; 6HR MAX TEMP:  55;

$$

LSZ147-162-201900-
LAKE SUPERIOR

STATION/POSITION TIME  TEMP    WIND        PRES    WAVE
                       AIR SEA DIR/SP/G            HT/PER
                 (UTC) (F)     (DEG/KT/KT) (MB)    (FT/S)
W MID LAKE BUOY  1750   47 46  310/  6/  6 1014.1R   1
DEVILS ISLAND    1800   49     340/ 14/ 15 1015.0R
PORT WING        1740   50     320/  9/ 10 1015.2R
SAXON HARBOR     1740   51     320/  8/ 10 1014.6R
$$

LMZ867-665-643>646-201900-
LAKE MICHIGAN

STATION/POSITION TIME  TEMP    WIND        PRES    WAVE



USA.gov is the U.S. government's official web portal to all federal, state and local government web resources and services.